Location: Albany
(35.0000°S, 118.0000°E)
Time: 13:30:39
(UTC-04:00)

Atlas Centaur 2 - Visible Passes

Search period start: 30 October 2014 00:00
Search period end: 08 November 2014 23:00
Orbit: 460 x 1327 km, 30.4° (Epoch: 29 October)

Date Brightness Start Highest point End Pass type
(mag) Time Alt. Az. Time Alt. Az. Time Alt. Az.
30 Oct 2.4 07:40:51 10° W 07:45:59 42° NNW 07:48:22 23° NE visible
31 Oct 2.6 07:39:47 10° W 07:44:58 38° NNW 07:47:33 21° NE visible
01 Nov 2.9 07:38:45 10° W 07:43:54 34° NNW 07:46:44 18° NE visible
02 Nov 3.2 06:37:44 10° W 06:42:47 29° NNW 06:45:55 15° NNE visible
03 Nov 3.5 06:36:47 10° W 06:41:37 25° NNW 06:45:07 12° NNE visible
04 Nov 3.9 06:35:56 10° WNW 06:40:25 21° NNW 06:44:12 10° NNE visible
05 Nov 4.1 06:35:14 10° WNW 06:39:09 17° NNW 06:42:35 10° N visible
06 Nov 4.3 06:34:49 10° WNW 06:37:52 14° NW 06:40:37 10° N visible
07 Nov 4.6 06:35:17 10° NW 06:36:32 11° NW 06:37:44 10° NNW visible
